Location: Unspecified
(0.0000°N, 0.0000°E)
Time: 22:40:12
(UTC+00:00)

ISS - Pass Details

Date: 20 January 2019
Orbit: 404 x 411 km, 51.6° (Epoch: 19 January)

Event Time Altitude Azimuth Distance (km) Brightness Sun altitude
Exits shadow 05:14:32 21° 317° (NW) 964 -2.5 -13.2°
Maximum altitude 05:16:33 74° 236° (SW) 425 -3.9 -12.7°
Drops below altitude 10° 05:19:49 10° 149° (SSE) 1,462 -0.2 -12.0°
Sets 05:21:54 0° 147° (SSE) 2,323 1.0 -11.5°
